User: anonymous   Login
Location: Wildcat Hills Observatory
(41.6350°N, 103.6812°W)
Time: 23:58:17
(UTC-07:00)
Language:

Cosmos 1634 Rocket - Orbit

View from above orbital plane
View from above orbital plane
View from above satellite
View from above satellite

Ground track
Ground track

The orbit data is extracted from the following two-line orbital elements,

1 15598U 85022B   18016.87619490  .00000010  00000-0 -52825-5 0  9994
2 15598  82.9392 308.2626 0020942 229.7994 188.3594 13.76554319649864
Epoch (UTC): 16 January 2018 21:01:43
Eccentricity: 0.0020942
inclination: 82.9392°
perigee height: 961 km
apogee height: 991 km
right ascension of ascending node: 308.2626°
argument of perigee: 229.7994°
revolutions per day: 13.76554319
mean anomaly at epoch: 188.3594°
orbit number at epoch: 64986

The dashed part of the orbit path shows where the satellite is in the earth's shadow,  

DLR